Wind_Speed
17 17 18 17 16 16 16 15 14 14 13 12 12 12 13 14 15 15 15 15 16 17 18 18 19 19 18 18 18 20 21 23 25 27 28 29 31 32 31 30 30 29
18 19 20 19 18 17 17 16 14 14 14 13 13 14 14 14 15 15 15 16 16 17 17 18 19 19 18 18 20 22 23 25 27 29 30 32 32 31 30 28 27 26
20 21 21 21 19 18 18 17 15 14 14 14 13 14 14 14 15 15 16 16 17 18 19 19 19 19 19 20 21 22 23 25 27 29 32 33 28 24 23 23 23 22
23 22 22 22 20 19 18 17 15 14 14 14 14 14 15 15 15 15 16 17 18 19 19 18 18 19 20 21 22 23 24 25 26 28 31 29 21 17 20 21 22 23
24 24 23 22 21 19 18 16 15 13 13 13 14 14 15 16 16 16 16 17 18 18 18 17 18 19 20 21 22 24 24 26 27 27 28 25 17 15 19 22 23 24
23 23 23 22 20 18 16 15 14 13 12 13 13 14 15 16 17 17 17 17 17 17 17 17 17 18 20 21 23 24 25 26 26 26 25 22 16 16 21 24 23 24
20 21 21 20 18 16 14 14 14 13 12 12 13 14 15 16 16 16 15 15 15 15 15 16 17 18 20 22 23 24 25 26 26 26 25 22 20 22 26 26 24 24
16 17 17 16 15 13 13 13 13 12 12 12 13 14 14 14 14 13 13 13 13 14 15 16 18 19 21 23 25 26 27 27 27 27 27 26 26 27 29 28 26 25
13 13 13 12 12 12 12 13 12 12 12 12 13 14 13 12 12 12 13 13 15 16 17 18 19 20 22 24 27 28 30 30 29 29 28 28 29 30 30 30 28 27
10 11 10 9 9 10 12 12 12 12 13 13 13 13 12 12 13 14 15 16 16 17 18 19 20 22 24 26 29 30 32 33 32 31 30 30 30 30 31 31 32 30
9 9 8 8 8 10 11 11 12 12 14 14 13 12 12 13 15 16 16 17 17 18 19 20 22 25 27 29 31 33 34 35 34 33 32 32 32 32 31 31 32 32
9 9 8 8 9 10 10 11 12 14 15 14 13 12 12 13 15 16 17 18 19 19 19 21 24 27 29 31 33 35 36 36 35 35 34 33 33 33 33 32 32 33
10 10 10 10 10 10 11 11 13 14 15 15 14 13 13 14 15 17 18 19 20 20 21 23 25 28 30 32 35 36 37 37 37 36 35 34 35 34 34 34 33 34
12 11 11 11 10 10 11 12 14 15 15 16 16 16 15 15 16 17 18 20 20 21 22 23 25 28 31 33 36 37 38 38 38 37 35 35 36 36 35 35 35 35
15 14 13 12 11 10 11 13 15 16 16 16 17 17 17 17 18 19 20 21 21 21 23 25 28 31 33 34 36 38 39 40 39 38 36 36 36 37 37 37 37 37
17 15 14 13 11 11 13 14 15 16 16 16 16 17 18 19 20 20 21 22 22 23 26 28 31 33 34 35 37 38 39 40 40 37 36 36 37 37 38 39 38 38
18 16 14 13 12 13 14 15 16 16 16 16 16 17 19 20 21 22 23 24 25 26 29 30 32 33 35 36 37 39 39 40 41 38 36 38 38 38 39 39 38 38
18 16 15 14 14 15 15 15 16 16 16 16 16 17 19 21 22 23 25 27 28 29 30 31 33 35 36 37 38 39 39 40 41 40 39 39 39 38 38 38 38 38
19 16 16 16 16 16 16 16 16 16 17 17 17 18 19 21 23 25 27 29 31 32 33 34 36 39 41 40 39 40 40 40 40 40 40 39 38 38 38 38 38 38
19 17 16 17 16 16 17 17 17 18 18 18 18 19 20 22 24 26 28 30 33 35 37 38 39 42 43 42 40 40 41 40 40 41 40 39 39 38 38 39 40 39
18 17 17 16 17 17 17 18 18 18 18 18 19 21 23 25 26 28 29 32 34 37 40 41 42 42 41 40 40 41 41 41 40 40 40 40 39 39 39 40 41 41
17 17 16 16 17 18 18 17 18 18 19 20 22 23 25 27 29 30 32 34 37 39 41 43 43 42 40 40 41 41 40 40 40 40 40 39 39 39 40 42 43 44
17 17 16 16 17 17 17 18 19 21 23 24 25 26 27 29 31 32 35 37 39 41 43 45 45 43 41 41 40 39 39 39 40 40 40 39 39 40 41 44 45 46
18 17 16 17 18 18 19 21 22 24 26 28 29 29 29 30 32 34 37 39 41 43 46 46 44 41 40 40 39 39 39 39 40 40 39 39 40 40 42 44 45 46
20 19 18 19 21 21 22 24 25 26 28 31 33 32 30 32 34 36 38 39 41 43 43 42 39 38 39 40 40 39 40 39 40 40 39 39 40 41 42 44 45 46
22 22 21 22 23 24 25 26 27 29 30 32 34 34 33 34 36 38 38 39 41 42 41 39 39 40 41 41 41 40 40 40 40 39 39 39 40 41 43 44 45 45
Wind_Direction
254 257 260 263 267 269 271 279 289 290 285 284 284 285 289 296 301 302 303 303 304 305 308 311 317 323 328 332 331 329 329 328 327 327 326 323 319 316 313 313 312 308
254 255 257 260 264 267 269 275 285 287 284 282 281 284 290 295 298 299 300 301 302 304 305 309 317 323 328 332 332 331 331 331 330 330 328 327 323 319 317 316 313 309
252 252 254 258 262 266 269 273 280 283 281 279 280 284 288 291 295 298 301 304 304 303 302 306 314 322 327 331 333 334 334 334 333 332 332 332 329 328 329 326 321 318
252 253 254 257 262 266 268 271 277 278 276 277 280 282 286 289 292 297 302 305 305 303 302 307 314 322 328 330 332 334 335 335 335 335 336 335 333 337 340 337 332 328
252 253 255 257 260 263 266 270 274 272 271 275 279 280 284 288 291 296 301 303 303 304 306 311 319 325 328 329 330 332 333 334 334 335 337 336 332 338 341 336 331 327
250 250 252 255 258 260 263 267 269 268 269 272 276 280 284 288 293 299 302 301 302 306 310 316 322 326 326 326 327 327 328 328 329 331 333 332 325 325 331 330 324 319
248 249 251 253 257 260 262 263 264 265 267 270 274 278 283 289 295 300 301 302 305 309 314 318 321 321 320 320 321 322 322 323 324 324 324 322 316 312 318 321 318 312
251 251 253 256 259 261 261 259 259 260 264 269 273 277 284 289 293 296 298 302 306 309 311 312 314 315 315 317 318 318 318 318 319 319 318 316 313 311 313 316 315 310
255 257 259 261 261 258 255 252 252 256 261 266 270 278 285 288 288 291 296 300 302 304 306 308 312 315 317 318 318 318 318 318 318 318 316 314 312 311 312 315 315 311
252 256 257 258 254 248 245 247 250 253 257 261 267 276 284 287 289 292 296 299 302 305 308 312 317 321 323 324 324 324 324 323 322 320 318 316 314 312 311 312 314 312
241 246 246 243 240 237 239 244 250 253 256 259 265 271 280 287 290 293 296 299 303 307 312 318 323 327 329 331 331 330 328 327 326 323 320 318 317 315 313 310 311 311
234 238 238 233 231 231 237 244 248 252 257 260 264 269 277 285 289 293 297 300 304 307 313 321 328 330 333 334 334 332 330 328 327 325 322 319 318 317 316 313 310 309
231 232 234 230 226 229 236 241 245 251 257 263 268 273 279 284 287 290 294 298 301 306 315 324 329 331 332 333 333 332 331 328 326 325 323 320 318 318 318 316 312 309
232 229 232 231 226 229 235 238 243 249 256 264 272 278 280 280 282 284 288 292 297 306 316 324 328 329 329 329 329 329 328 327 326 323 321 319 317 316 315 314 313 310
235 229 229 233 229 228 232 235 241 249 256 265 272 277 279 280 282 285 287 289 296 307 315 321 324 323 324 324 325 325 325 325 324 322 319 317 316 314 313 313 312 310
236 231 229 231 230 227 229 234 242 251 258 264 270 275 280 285 289 293 295 296 303 310 316 320 320 318 318 320 320 321 321 322 322 320 318 317 316 315 314 312 310 307
236 233 230 228 226 226 229 236 245 254 262 268 274 279 284 289 294 300 302 303 308 312 315 318 317 315 315 316 317 317 318 319 319 318 318 317 316 316 315 313 309 306
238 234 231 227 224 226 231 239 248 257 266 273 280 285 288 291 296 299 302 305 308 310 311 313 314 313 313 312 313 314 315 316 317 317 317 316 315 316 316 312 309 308
240 234 228 226 225 227 233 243 252 262 270 276 283 289 291 293 295 298 301 304 305 306 309 312 314 313 310 308 308 310 313 314 315 315 315 315 316 317 316 314 313 311
237 232 227 226 227 231 239 249 258 265 272 278 285 291 294 295 296 298 301 302 304 307 311 315 317 314 309 304 303 307 311 313 313 313 314 315 317 318 317 316 315 313
236 235 231 231 234 240 246 253 260 267 274 282 288 293 296 299 300 302 305 306 308 312 314 316 317 315 309 304 304 307 310 311 312 313 314 316 318 319 318 317 315 315
237 238 237 237 240 245 249 255 263 273 279 285 290 295 299 301 304 308 310 311 313 314 314 315 314 312 309 307 308 310 311 311 311 312 314 316 317 318 317 315 315 317
233 236 240 243 246 250 257 265 273 279 283 287 292 296 299 302 306 310 311 312 313 312 312 311 310 309 309 310 311 311 311 311 311 312 313 315 316 317 316 314 315 318
230 234 243 251 256 261 267 273 279 283 286 289 291 292 296 303 307 309 310 311 311 311 312 312 310 308 309 311 311 310 310 310 310 311 312 314 315 316 315 314 316 319
235 238 245 253 259 265 270 275 280 284 287 291 293 294 298 303 305 305 307 308 309 311 314 316 313 311 311 310 309 308 309 309 309 310 312 314 314 314 315 315 317 318
241 244 247 253 260 266 270 275 278 282 286 290 293 297 300 301 300 300 301 302 304 308 311 312 312 312 310 307 305 306 307 307 309 311 313 313 313 313 314 315 315 315
Height
5918 5918 5919 5920 5921 5921 5921 5922 5923 5923 5923 5923 5923 5923 5923 5923 5923 5923 5923 5923 5922 5921 5920 5919 5919 5918 5917 5916 5915 5914 5913 5911 5910 5909 5907 5905 5902 5900 5898 5896 5894 5892
5915 5916 5917 5918 5919 5920 5920 5921 5921 5921 5921 5921 5922 5922 5922 5921 5921 5921 5921 5921 5921 5920 5919 5918 5917 5916 5915 5914 5912 5911 5910 5909 5907 5906 5904 5902 5899 5896 5894 5893 5891 5889
5913 5914 5915 5915 5917 5918 5918 5919 5920 5920 5919 5920 5920 5920 5920 5920 5920 5919 5919 5919 5919 5918 5917 5916 5915 5913 5912 5911 5911 5910 5908 5907 5905 5903 5901 5899 5896 5894 5893 5891 5890 5888
5910 5911 5912 5913 5914 5916 5916 5917 5918 5918 5918 5918 5918 5918 5918 5918 5918 5918 5917 5917 5917 5916 5915 5914 5913 5911 5910 5909 5908 5908 5906 5905 5903 5901 5899 5897 5895 5894 5892 5891 5890 5889
5908 5908 5909 5911 5912 5914 5914 5915 5915 5916 5916 5916 5916 5916 5916 5916 5916 5916 5916 5915 5915 5913 5912 5911 5910 5909 5907 5907 5906 5905 5904 5903 5901 5899 5897 5895 5894 5893 5892 5890 5889 5888
5904 5905 5906 5908 5910 5911 5912 5913 5913 5913 5914 5914 5914 5914 5914 5914 5914 5914 5914 5913 5912 5911 5910 5909 5908 5907 5906 5905 5904 5903 5902 5901 5899 5898 5896 5894 5893 5892 5890 5889 5887 5886
5901 5902 5904 5905 5908 5909 5910 5911 5911 5911 5912 5912 5912 5912 5912 5912 5912 5912 5912 5911 5910 5909 5908 5907 5906 5905 5904 5903 5902 5901 5900 5898 5897 5896 5894 5892 5891 5889 5888 5887 5885 5884
5899 5900 5901 5903 5905 5907 5908 5908 5909 5909 5909 5910 5910 5910 5911 5911 5911 5910 5910 5909 5908 5907 5906 5905 5904 5903 5902 5901 5900 5899 5897 5896 5895 5893 5891 5890 5888 5886 5885 5884 5882 5881
5897 5898 5899 5901 5903 5904 5905 5906 5906 5907 5908 5908 5908 5909 5909 5909 5909 5909 5908 5908 5907 5906 5905 5903 5902 5901 5900 5899 5898 5896 5894 5893 5891 5890 5888 5886 5885 5883 5882 5881 5880 5879
5895 5896 5898 5899 5901 5902 5903 5903 5904 5905 5906 5906 5907 5907 5907 5907 5907 5906 5906 5905 5904 5904 5903 5901 5900 5899 5898 5896 5895 5893 5891 5889 5887 5886 5884 5883 5881 5880 5879 5878 5877 5876
5893 5894 5896 5897 5899 5899 5900 5901 5902 5903 5903 5904 5905 5905 5905 5905 5904 5904 5903 5902 5902 5901 5900 5899 5897 5896 5894 5893 5891 5889 5887 5885 5883 5882 5881 5879 5878 5876 5876 5875 5874 5873
5891 5892 5894 5895 5896 5897 5898 5899 5900 5900 5901 5901 5902 5903 5903 5903 5902 5901 5900 5900 5899 5898 5897 5896 5895 5893 5891 5890 5887 5885 5883 5882 5880 5879 5877 5876 5874 5873 5872 5871 5870 5869
5889 5890 5891 5893 5894 5895 5896 5897 5898 5898 5898 5898 5899 5900 5901 5901 5900 5899 5898 5897 5896 5895 5894 5894 5892 5891 5889 5887 5884 5882 5880 5879 5877 5876 5874 5873 5871 5870 5868 5867 5866 5865
5886 5888 5889 5890 5892 5893 5894 5895 5895 5895 5896 5896 5896 5897 5898 5898 5898 5897 5896 5895 5894 5893 5892 5891 5890 5888 5886 5884 5881 5879 5878 5876 5874 5873 5871 5869 5868 5866 5865 5864 5862 5861
5883 5885 5886 5887 5889 5890 5891 5892 5892 5893 5893 5894 5894 5894 5894 5895 5895 5894 5894 5893 5892 5890 5889 5888 5887 5885 5883 5881 5878 5876 5875 5873 5871 5869 5868 5866 5865 5863 5861 5860 5858 5856
5880 5882 5883 5885 5886 5888 5888 5889 5889 5890 5891 5892 5892 5892 5892 5892 5891 5891 5890 5889 5888 5887 5885 5884 5883 5881 5880 5878 5875 5873 5872 5870 5868 5867 5865 5863 5861 5860 5858 5856 5854 5852
5877 5879 5880 5882 5883 5885 5885 5886 5886 5887 5888 5889 5890 5890 5889 5889 5888 5887 5886 5885 5884 5883 5882 5881 5879 5878 5876 5875 5872 5870 5868 5867 5865 5864 5862 5860 5858 5856 5854 5852 5850 5847
5874 5876 5877 5879 5880 5881 5882 5883 5884 5884 5885 5886 5887 5887 5886 5886 5885 5884 5883 5882 5881 5880 5879 5878 5877 5875 5873 5871 5869 5866 5865 5863 5861 5860 5858 5856 5854 5852 5850 5847 5845 5843
5871 5873 5874 5876 5877 5878 5879 5880 5881 5882 5882 5883 5883 5883 5882 5882 5881 5881 5880 5878 5877 5876 5876 5875 5874 5872 5870 5868 5865 5863 5861 5859 5858 5856 5854 5852 5850 5848 5845 5842 5840 5838
5868 5870 5871 5872 5874 5875 5876 5877 5878 5878 5879 5879 5879 5879 5878 5878 5877 5877 5876 5875 5874 5873 5872 5872 5871 5869 5866 5864 5861 5859 5857 5855 5853 5852 5850 5848 5846 5843 5840 5838 5836 5834
5865 5866 5868 5869 5870 5871 5873 5874 5874 5874 5875 5875 5875 5875 5874 5874 5873 5873 5872 5871 5870 5869 5868 5868 5867 5865 5862 5860 5857 5855 5853 5851 5849 5847 5845 5843 5841 5839 5836 5834 5831 5829
5861 5862 5864 5865 5867 5868 5869 5870 5870 5870 5871 5871 5871 5870 5870 5870 5869 5869 5868 5867 5866 5866 5864 5863 5862 5860 5858 5855 5853 5851 5848 5846 5844 5843 5841 5839 5837 5835 5832 5830 5828 5826
5858 5859 5860 5861 5863 5864 5865 5866 5866 5866 5866 5866 5866 5866 5866 5865 5865 5865 5864 5863 5862 5861 5860 5859 5858 5856 5854 5851 5849 5846 5844 5842 5840 5838 5837 5835 5833 5830 5828 5825 5824 5822
5855 5856 5857 5858 5859 5860 5861 5862 5862 5862 5862 5862 5862 5862 5862 5862 5861 5860 5859 5858 5857 5856 5855 5854 5853 5851 5850 5847 5845 5843 5840 5838 5836 5834 5833 5831 5828 5826 5824 5821 5820 5819
5852 5852 5853 5854 5855 5856 5857 5858 5858 5858 5858 5858 5858 5858 5858 5858 5856 5855 5855 5854 5853 5852 5851 5849 5848 5847 5845 5843 5841 5839 5836 5835 5832 5830 5829 5826 5824 5822 5819 5817 5816 5814
5848 5849 5850 5851 5852 5853 5853 5854 5854 5854 5854 5855 5854 5854 5854 5853 5851 5851 5851 5850 5849 5847 5846 5845 5843 5843 5841 5839 5837 5835 5832 5830 5828 5826 5824 5822 5820 5818 5815 5813 5811 5809